EW5961 Weather Reports


time (UTC)temp
C
wind
direction
speed
KPH
gust
KPH
rain 1hr
cm
rain 24hr
cm
rain mn
cm
humidity
%
barometer
mb
20260905170036 31 100 4.8 16.1 0.00 0.08 0.00 75 1013.3
20260905164536 31 5 6.4 12.9 0.00 0.08 0.00 77 1013.6
20260905163028 30 129 6.4 14.5 0.00 0.08 0.00 80 1013.9
20260905161526 29 102 6.4 12.9 0.00 0.08 0.00 81 1014.0
20260905160041 30 112 3.2 11.3 0.00 0.08 0.00 81 1014.1
20260905154524 29 136 6.4 14.5 0.00 0.08 0.00 81 1014.1
20260905153023 29 139 8.0 16.1 0.00 0.08 0.00 82 1014.2
20260905151521 29 123 6.4 14.5 0.00 0.08 0.00 83 1014.2
20260905150017 28 103 4.8 11.3 0.00 0.08 0.00 84 1014.1
20260905144513 28 72 8.0 14.5 0.00 0.08 0.00 84 1014.1
20260905143008 28 92 8.0 14.5 0.00 0.08 0.00 85 1014.1
20260905141505 27 148 3.2 11.3 0.00 0.08 0.00 85 1013.9
20260905140000 27 116 6.4 11.3 0.00 0.08 0.00 86 1013.9
20260905134604 27 169 3.2 9.7 0.00 0.08 0.00 87 1013.7
20260905131549 26 111 4.8 11.3 0.00 0.08 0.00 88 1013.3
20260905130044 26 106 3.2 9.7 0.00 0.08 0.00 89 1013.4
20260905124543 26 102 1.6 6.4 0.00 0.08 0.00 89 1013.1
20260905123038 26 119 3.2 9.7 0.00 0.08 0.00 89 1013.0
20260905121534 25 71 0.0 6.4 0.00 0.08 0.00 89 1012.7
20260905120032 25 84 1.6 4.8 0.00 0.08 0.00 89 1012.6
20260905114530 25 89 1.6 9.7 0.00 0.08 0.00 89 1012.3
20260905113029 25 114 0.0 4.8 0.00 0.08 0.00 89 1012.2
20260905111531 25 128 1.6 6.4 0.00 0.08 0.00 88 1012.1
20260905110028 25 93 0.0 3.2 0.00 0.08 0.00 88 1012.0
20260905104527 25 87 0.0 9.7 0.00 0.08 0.00 88 1011.9
20260905103027 25 107 1.6 4.8 0.00 0.08 0.00 88 1011.8
20260905101526 25 82 0.0 6.4 0.00 0.08 0.00 88 1011.6
20260905100025 25 103 1.6 9.7 0.00 0.08 0.00 88 1011.5
20260905094533 25 81 3.2 9.7 0.00 0.08 0.00 88 1011.6
20260905093023 25 74 3.2 11.3 0.00 0.08 0.00 88 1011.5
20260905091550 25 115 3.2 11.3 0.00 0.08 0.00 87 1011.7
20260905090021 25 156 1.6 9.7 0.00 0.08 0.00 87 1011.8
20260905084518 25 71 4.8 12.9 0.00 0.08 0.00 87 1012.0
20260905083017 25 123 6.4 14.5 0.00 0.08 0.00 87 1012.2
20260905081514 26 105 6.4 12.9 0.00 0.08 0.00 86 1012.2
20260905080013 26 132 3.2 9.7 0.00 0.08 0.00 86 1012.3
20260905074514 26 87 3.2 11.3 0.00 0.08 0.00 85 1012.3
20260905073010 26 103 3.2 16.1 0.00 0.08 0.00 85 1012.4
20260905071509 26 123 4.8 12.9 0.00 0.08 0.00 85 1012.5
20260905070008 26 105 3.2 12.9 0.00 0.08 0.00 84 1012.7
20260905064506 26 134 4.8 12.9 0.00 0.08 0.00 84 1012.7
20260905063005 26 125 3.2 12.9 0.00 0.08 0.00 83 1012.7
20260905060001 26 34 4.8 16.1 0.00 0.08 0.08 82 1012.9
20260905054601 26 85 6.4 12.9 0.00 0.08 0.08 82 1012.9
20260905053101 26 132 3.2 12.9 0.00 0.08 0.08 83 1013.0
20260905051559 26 66 3.2 12.9 0.00 0.08 0.08 84 1013.1
20260905050059 26 68 9.7 14.5 0.00 0.08 0.08 84 1013.3
20260905044558 26 21 8.0 12.9 0.00 0.08 0.08 84 1013.4
20260905043057 26 70 6.4 16.1 0.00 0.08 0.08 84 1013.5
20260905041602 26 98 11.3 14.5 0.00 0.08 0.08 84 1013.7
20260905040057 26 53 8.0 9.7 0.00 0.08 0.08 84 1014.0
20260905034609 26 76 0.0 4.8 0.00 0.08 0.08 83 1014.1
20260905033059 26 46 3.2 11.3 0.00 0.08 0.08 82 1014.3
20260905031555 26 50 3.2 6.4 0.00 0.08 0.08 82 1014.1
20260905030053 26 98 0.0 6.4 0.00 0.08 0.08 81 1013.8
20260905024557 26 100 3.2 11.3 0.00 0.08 0.08 80 1013.9
20260905023052 26 117 1.6 14.5 0.00 0.08 0.08 80 1013.6
20260905021556 26 98 1.6 12.9 0.00 0.08 0.08 80 1013.5
20260905020051 26 71 6.4 19.3 0.00 0.08 0.08 80 1012.5
20260905014550 26 123 9.7 20.9 0.00 0.08 0.08 81 1012.2
20260905013051 26 66 11.3 16.1 0.00 0.08 0.08 81 1012.1
20260905011549 26 122 1.6 11.3 0.00 0.08 0.08 81 1011.9
20260905010048 26 106 4.8 17.7 0.00 0.08 0.08 82 1011.4
20260905004550 26 207 1.6 4.8 0.00 0.08 0.08 81 1011.4
20260905003048 26 252 3.2 6.4 0.03 0.08 0.08 80 1011.5
20260905001555 26 9 11.3 25.7 0.08 0.08 0.08 82 1011.6
20260905000052 25 43 32.2 49.9 0.08 0.08 0.08 84 1012.1
20260904234546 26 36 37.0 53.1 0.08 0.13 0.08 84 1012.1
20260904233049 27 99 29.0 46.7 0.05 0.08 0.05 81 1011.8
20260904231552 30 61 48.3 69.2 0.00 0.05 0.00 69 1011.5
20260904230141 33 50 24.1 32.2 0.00 0.05 0.00 67 1010.7
20260904224548 34 30 24.1 33.8 0.00 0.48 0.00 66 1010.7
20260904223055 35 38 29.0 38.6 0.00 0.48 0.00 64 1010.5
20260904221537 35 18 22.5 29.0 0.00 0.48 0.00 62 1010.5
20260904220037 36 105 1.6 16.1 0.00 0.48 0.00 53 1010.4
20260904214534 36 122 4.8 14.5 0.00 0.48 0.00 53 1010.5
20260904213033 36 76 4.8 16.1 0.00 0.48 0.00 55 1010.5
20260904211534 36 291 8.0 20.9 0.00 0.48 0.00 56 1010.5
20260904210033 36 83 9.7 24.1 0.00 0.48 0.00 55 1010.6
20260904204528 36 129 3.2 17.7 0.00 0.48 0.00 57 1010.8
20260904203027 36 208 1.6 8.0 0.00 0.48 0.00 57 1010.8
20260904201524 35 22 6.4 16.1 0.00 0.48 0.00 58 1010.8
20260904200023 36 110 8.0 22.5 0.00 0.48 0.00 58 1010.9
20260904194519 35 49 4.8 11.3 0.00 0.48 0.00 59 1011.4
20260904193018 34 136 8.0 16.1 0.00 0.48 0.00 61 1011.7
20260904191517 34 109 4.8 16.1 0.00 0.48 0.00 63 1012.1
20260904190019 35 104 4.8 11.3 0.00 0.48 0.00 63 1012.4
20260904184512 35 98 11.3 20.9 0.00 0.48 0.00 63 1012.6
20260904183021 34 65 6.4 19.3 0.00 0.48 0.00 64 1012.8
20260904181512 34 119 4.8 17.7 0.00 0.48 0.00 63 1013.0
20260904180004 33 165 6.4 17.7 0.00 0.48 0.00 67 1013.2
20260904174559 33 150 8.0 17.7 0.00 0.48 0.00 67 1013.5
20260904173102 32 182 4.8 14.5 0.00 0.48 0.00 67 1013.9
20260904171553 32 144 12.9 22.5 0.00 0.48 0.00 69 1014.0